Regional Weather Roundup
Issued by NWS Burlington, VT

Current Version | Previous Version | Graphics & Text | Print | Product List | Glossary Off
Versions: 1 2 3 4 5 6 7 8 9 10 11 12 13 14 15 16 17 18 19 20 21 22 23 24 25 26 27 28 29 30 31 32 33 34 35 36 37 38 39 40 41 42 43 44 45 46 47 48 49 50

000
ASUS41 KBTV 281910
RWRBTV
VERMONT REGIONAL WEATHER ROUNDUP
NATIONAL WEATHER SERVICE BURLINGTON VT
200 PM EST SAT FEB 28 2015

NOTE: "FAIR" INDICATES FEW OR NO CLOUDS BELOW 12,000 FEET WITH NO
SIGNIFICANT WEATHER AND/OR OBSTRUCTIONS TO VISIBILITY.

* THESE REPORTS ARE NOT UNDER NWS QUALITY CONTROL AND/OR DO NOT
  REPORT WEATHER SUCH AS PRECIPITATION AND FOG.

VTZ001>019-282000-
_____VERMONT_____


CITY           SKY/WX    TMP DP  RH WIND       PRES   REMARKS
BURLINGTON     CLEAR     21   0  39 SW9       30.68F
MONTPELIER     CLEAR     20   1  43 NW8       30.64F
MORRISVILLE    CLEAR     24   2  38 VRB6      30.64F
ST. JOHNSBURY*   N/A     24   1  36 MISG      30.61F
LYNDONVILLE*   FAIR      21  -4  33 SW7       30.60F
MIDDLEBURY*    FAIR      22  -4  31 S3        30.68F
RUTLAND*       CLEAR     19   0  42 CALM      30.66F
SPRINGFIELD    CLEAR     25  -2  31 CALM      30.65F
HIGHGATE*      FAIR      22   3  43 SW7       30.67F
NEWPORT*       FAIR      19   0  43 SW12G20   30.61F WCI   7
BENNINGTON     CLEAR     20   1  43 CALM      30.68F
SUTTON*          N/A     19 N/A N/A MISG        N/A

_____LAKE CHAMPLAIN_____


CITY           SKY/WX    TMP DP  RH WIND       PRES   REMARKS

$$

NYZ007-026>031-035-052-083-282000-
_____NORTHERN NEW YORK_____


CITY           SKY/WX    TMP DP  RH WIND       PRES   REMARKS
PLATTSBURGH    CLEAR     19   3  49 SE17      30.67F WCI   4
SARANAC LAKE   CLEAR     19   0  43 SW14G20   30.55F WCI   6
MASSENA        CLEAR     22   6  50 SW15G24   30.70F WCI   9
OGDENSBURG*    CLEAR     27   9  46 W9G20     30.70F
POTSDAM*       PTCLDY    21  10  63 SW15G22   30.68F WCI   8
WATERTOWN      MOCLDY    22   9  57 SW17      30.73F WCI   8
FT DRUM        CLEAR     20   6  55 SW17      30.69F WCI   5
ALBANY         CLEAR     24   4  42 W7        30.74F
GLENS FALLS    CLEAR     21   4  47 S9        30.72F

$$
NHZ002-005-011-282000-
_____NEW HAMPSHIRE_____


CITY           SKY/WX    TMP DP  RH WIND       PRES   REMARKS
LEBANON        CLEAR     27   1  32 CALM      30.64F
KEENE          CLEAR     27   0  31 CALM      30.65F
MT WASHINGTON  CLEAR      0  -9  65 NW37        N/A  WCI -28
PLYMOUTH       FAIR      27   5  39 W9        30.63F
WHITEFIELD     CLEAR     22  -3  33 W6        30.59F

$$

_____REGIONAL QUEBEC LOCATIONS_____


CITY           SKY/WX    TMP DP  RH WIND       PRES   REMARKS

_____REGIONAL ONTARIO LOCATIONS_____


CITY           SKY/WX    TMP DP  RH WIND       PRES   REMARKS

______KEY______
VSB  - VISIBILITY IN MILES
WCI  - WIND CHILL INDEX
HX   - HEAT INDEX
$$
NNNN


USA.gov is the U.S. government's official web portal to all federal, state and local government web resources and services.